Olivia, MN

7:09 PM CDT on April 19, 2018 (GMT -0500)
Olivia Regional

Weather History for KOVL - June, 2013

Change the Weather History Date:

Thursday, June 13, 2013

  Actual Average (KRWF) Record (KRWF)
Temperature  
Mean Temperature 65 °F -  
Max Temperature 77 °F 82 °F 104 °F (1956)
Min Temperature 53 °F 58 °F 39 °F (1969)
Growing Degree Days 15 (Base 50)    
Moisture  
Dew Point 53 °F    
Average Humidity 63    
Maximum Humidity 88    
Minimum Humidity 39    
Precipitation  
Precipitation 0.00 in - - ()
Sea Level Pressure  
Sea Level Pressure 30.07 in    
Wind  
Wind Speed 7 mph (NE)    
Max Wind Speed 9 mph    
Max Gust Speed -    
Visibility 10 miles    
Events      
Averages and records for this station are not official NWS values.
T = Trace of Precipitation, MM = Missing Value Source: NWS Daily Summary

Daily Weather History Graph

Daily Weather History Graph

Search for Another Location

Airport or City:

Astronomy

Jun. 13, 2013 Rise Set
Actual Time 5:33 AM CDT 9:07 PM CDT
Civil Twilight 4:56 AM CDT 9:44 PM CDT
Nautical Twilight 4:07 AM CDT 10:33 PM CDT
Astronomical Twilight 3:03 AM CDT 11:37 PM CDT
Moon 10:21 AM CDT (6/13) No Moon Set
Length of Visible Light 16h 47m
Length of Day
15h 33m
Waxing Crescent, 22% of the Moon is Illuminated
Jun 13
Waxing Crescent
Jun 16
First Quarter
Jun 23
Full
Jun 29
Last Quarter
Jul 8
New

Hourly Weather History & Observations

Time (CDT) Temp. Dew Point Humidity Pressure Visibility Wind Dir Wind Speed Gust Speed Precip Events Conditions
12:13 AM 59.0 °F 53.6 °F 82% 30.01 in 10.0 mi NW 9.2 mph - N/A   Clear
12:34 AM 59.0 °F 53.6 °F 82% 30.02 in 10.0 mi NW 8.1 mph - N/A   Clear
12:54 AM 59.0 °F 53.6 °F 82% 30.02 in 10.0 mi NW 6.9 mph - N/A   Clear
1:14 AM 59.0 °F 51.8 °F 77% 30.01 in 10.0 mi NNW 8.1 mph - N/A   Clear
1:34 AM 57.2 °F 51.8 °F 82% 30.01 in 10.0 mi NNW 6.9 mph - N/A   Clear
1:54 AM 59.0 °F 51.8 °F 77% 30.02 in 10.0 mi NNW 9.2 mph - N/A   Clear
2:14 AM 57.2 °F 51.8 °F 82% 30.03 in 10.0 mi NNW 8.1 mph - N/A   Clear
2:34 AM 57.2 °F 51.8 °F 82% 30.04 in 10.0 mi NNW 6.9 mph - N/A   Clear
2:53 AM 55.4 °F 50.0 °F 82% 30.04 in 10.0 mi NNW 8.1 mph - N/A   Clear
3:14 AM 55.4 °F 50.0 °F 82% 30.04 in 10.0 mi NNW 9.2 mph - N/A   Clear
3:34 AM 53.6 °F 50.0 °F 88% 30.03 in 10.0 mi NNW 8.1 mph - N/A   Clear
3:53 AM 53.6 °F 50.0 °F 88% 30.04 in 10.0 mi North 5.8 mph - N/A   Clear
4:14 AM 53.6 °F 50.0 °F 88% 30.04 in 10.0 mi NNW 6.9 mph - N/A   Clear
4:34 AM 53.6 °F 50.0 °F 88% 30.05 in 10.0 mi NNW 6.9 mph - N/A   Clear
4:54 AM 53.6 °F 50.0 °F 88% 30.05 in 10.0 mi NNW 6.9 mph - N/A   Clear
5:14 AM 53.6 °F 50.0 °F 88% 30.06 in 10.0 mi NNW 8.1 mph - N/A   Clear
5:34 AM 53.6 °F 50.0 °F 88% 30.07 in 10.0 mi NW 5.8 mph - N/A   Clear
5:54 AM 53.6 °F 50.0 °F 88% 30.08 in 10.0 mi NNW 6.9 mph - N/A   Clear
6:14 AM 53.6 °F 50.0 °F 88% 30.09 in 10.0 mi NNW 6.9 mph - N/A   Clear
6:34 AM 53.6 °F 50.0 °F 88% 30.09 in 10.0 mi NNW 6.9 mph - N/A   Clear
6:54 AM 57.2 °F 51.8 °F 82% 30.09 in 10.0 mi NNW 6.9 mph - N/A   Clear
7:14 AM 57.2 °F 51.8 °F 82% 30.08 in 10.0 mi North 5.8 mph - N/A   Clear
7:34 AM 59.0 °F 51.8 °F 77% 30.07 in 10.0 mi North 6.9 mph - N/A   Clear
7:54 AM 59.0 °F 51.8 °F 77% 30.08 in 10.0 mi NNE 6.9 mph - N/A   Clear
8:14 AM 62.6 °F 51.8 °F 68% 30.08 in 10.0 mi NNE 8.1 mph - N/A   Clear
8:33 AM 62.6 °F 53.6 °F 72% 30.09 in 10.0 mi NNE 8.1 mph - N/A   Clear
8:54 AM 64.4 °F 53.6 °F 68% 30.10 in 10.0 mi NNE 5.8 mph - N/A   Clear
9:14 AM 68.0 °F 53.6 °F 60% 30.11 in 10.0 mi NNE 5.8 mph - N/A   Clear
9:34 AM 68.0 °F 53.6 °F 60% 30.11 in 10.0 mi NE 6.9 mph - N/A   Clear
9:54 AM 69.8 °F 57.2 °F 64% 30.12 in 10.0 mi North 4.6 mph - N/A   Clear
10:13 AM 69.8 °F 55.4 °F 60% 30.12 in 10.0 mi North 4.6 mph - N/A   Clear
10:34 AM 69.8 °F 57.2 °F 64% 30.12 in 10.0 mi ENE 3.5 mph - N/A   Clear
10:53 AM 69.8 °F 55.4 °F 60% 30.12 in 10.0 mi North 4.6 mph - N/A   Clear
11:14 AM 69.8 °F 53.6 °F 56% 30.11 in 10.0 mi NE 4.6 mph - N/A   Clear
11:34 AM 69.8 °F 53.6 °F 56% 30.11 in 10.0 mi NE 4.6 mph - N/A   Clear
11:54 AM 69.8 °F 53.6 °F 56% 30.11 in 10.0 mi NE 5.8 mph - N/A   Clear
12:14 PM 71.6 °F 53.6 °F 53% 30.12 in 10.0 mi North 5.8 mph - N/A   Scattered Clouds
12:34 PM 73.4 °F 53.6 °F 50% 30.11 in 10.0 mi NE 6.9 mph - N/A   Mostly Cloudy
12:54 PM 73.4 °F 53.6 °F 50% 30.11 in 10.0 mi NNE 8.1 mph - N/A   Scattered Clouds
1:14 PM 73.4 °F 53.6 °F 50% 30.11 in 10.0 mi Calm Calm - N/A   Clear
1:33 PM 73.4 °F 53.6 °F 50% 30.11 in 10.0 mi North 5.8 mph - N/A   Scattered Clouds
1:54 PM 73.4 °F 53.6 °F 50% 30.11 in 10.0 mi Calm Calm - N/A   Clear
2:14 PM 73.4 °F 51.8 °F 47% 30.10 in 10.0 mi NE 4.6 mph - N/A   Clear
2:34 PM 73.4 °F 51.8 °F 47% 30.09 in 10.0 mi East 5.8 mph - N/A   Clear
2:53 PM 73.4 °F 51.8 °F 47% 30.08 in 10.0 mi East 5.8 mph - N/A   Clear
3:14 PM 73.4 °F 50.0 °F 44% 30.08 in 10.0 mi ENE 3.5 mph - N/A   Clear
3:34 PM 77.0 °F 51.8 °F 41% 30.07 in 10.0 mi ENE 5.8 mph - N/A   Clear
3:53 PM 77.0 °F 51.8 °F 41% 30.07 in 10.0 mi NE 5.8 mph - N/A   Scattered Clouds
4:14 PM 77.0 °F 51.8 °F 41% 30.07 in 10.0 mi East 3.5 mph - N/A   Clear
4:34 PM 77.0 °F 51.8 °F 41% 30.07 in 10.0 mi SE 4.6 mph - N/A   Clear
4:52 PM 77.0 °F 51.8 °F 41% 30.07 in 10.0 mi Calm Calm - N/A   Scattered Clouds
5:14 PM 75.2 °F 50.0 °F 41% 30.06 in 10.0 mi East 5.8 mph - N/A   Scattered Clouds
5:34 PM 77.0 °F 50.0 °F 39% 30.06 in 10.0 mi SSE 3.5 mph - N/A   Scattered Clouds
5:54 PM 77.0 °F 51.8 °F 41% 30.06 in 10.0 mi ESE 4.6 mph - N/A   Mostly Cloudy
6:13 PM 73.4 °F 51.8 °F 47% 30.06 in 10.0 mi SE 4.6 mph - N/A   Mostly Cloudy
6:34 PM 77.0 °F 51.8 °F 41% 30.06 in 10.0 mi SE 8.1 mph - N/A   Scattered Clouds
6:54 PM 75.2 °F 50.0 °F 41% 30.05 in 10.0 mi ENE 3.5 mph - N/A   Clear
7:13 PM 75.2 °F 51.8 °F 44% 30.06 in 10.0 mi SE 8.1 mph - N/A   Clear
7:34 PM 73.4 °F 51.8 °F 47% 30.06 in 10.0 mi ESE 6.9 mph - N/A   Clear
7:53 PM 73.4 °F 50.0 °F 44% 30.05 in 10.0 mi ESE 6.9 mph - N/A   Clear
8:12 PM 73.4 °F 51.8 °F 47% 30.05 in 10.0 mi ESE 4.6 mph - N/A   Clear
8:34 PM 73.4 °F 57.2 °F 57% 30.05 in 10.0 mi SE 4.6 mph - N/A   Clear
8:53 PM 73.4 °F 55.4 °F 53% 30.05 in 10.0 mi SE 4.6 mph - N/A   Clear
9:14 PM 71.6 °F 53.6 °F 53% 30.05 in 10.0 mi SE 4.6 mph - N/A   Clear
9:33 PM 69.8 °F 55.4 °F 60% 30.04 in 10.0 mi ESE 4.6 mph - N/A   Clear
9:52 PM 69.8 °F 53.6 °F 56% 30.04 in 10.0 mi ESE 5.8 mph - N/A   Clear
10:14 PM 69.8 °F 53.6 °F 56% 30.04 in 10.0 mi East 4.6 mph - N/A   Clear
10:33 PM 69.8 °F 55.4 °F 60% 30.04 in 10.0 mi East 3.5 mph - N/A   Clear
10:54 PM 69.8 °F 55.4 °F 60% 30.04 in 10.0 mi East 3.5 mph - N/A   Clear
11:13 PM 68.0 °F 55.4 °F 64% 30.05 in 10.0 mi Calm Calm - N/A   Clear
11:34 PM 68.0 °F 55.4 °F 64% 30.05 in 10.0 mi East 4.6 mph - N/A   Clear
11:54 PM 68.0 °F 55.4 °F 64% 30.05 in 10.0 mi East 6.9 mph - N/A   Clear